This is the latest recevied weather packets stored in our database for station/object KE5WTH-14. If no packets are shown the sender has not sent any weather packets the latest 10 day(s).
| Time | Temp. | Humidity | Pressure | Rain* | Wind** | Luminosity | Snow |
|---|---|---|---|---|---|---|---|
| 1777926844 | 27.22° C | 57% | 1008.1 hPa | 0 mm | - | 798 W/m² | - |
| 1777926785 | 26.67° C | 57% | 1008.1 hPa | 0 mm | - | 835 W/m² | - |
| 1777926724 | 27.22° C | 55% | 1008.2 hPa | 0 mm | - | 853 W/m² | - |
| 1777926667 | 27.22° C | 57% | 1008.3 hPa | 0 mm | - | 856 W/m² | - |
| 1777926608 | 27.22° C | 56% | 1008.3 hPa | 0 mm | - | 830 W/m² | - |
| 1777926578 | 27.22° C | 55% | 1008.3 hPa | 0 mm | - | 835 W/m² | - |
| 1777926550 | 27.22° C | 55% | 1008.4 hPa | 0 mm | - | 835 W/m² | - |
| 1777926521 | 27.22° C | 56% | 1008.4 hPa | 0 mm | - | 879 W/m² | - |
| 1777926492 | 27.22° C | 57% | 1008.4 hPa | 0 mm | - | 898 W/m² | - |
| 1777926303 | 27.22° C | 58% | 1008.4 hPa | 0 mm | - | 897 W/m² | - |
| 1777926243 | 27.22° C | 57% | 1008.4 hPa | 0 mm | - | 916 W/m² | - |
| 1777926182 | 27.22° C | 55% | 1008.4 hPa | 0 mm | - | 916 W/m² | - |
| 1777926123 | 27.22° C | 56% | 1008.5 hPa | 0 mm | - | 916 W/m² | - |
| 1777926066 | 27.22° C | 55% | 1008.4 hPa | 0 mm | - | 900 W/m² | - |
| 1777926011 | 27.22° C | 56% | 1008.4 hPa | 0 mm | - | 886 W/m² | - |
| 1777925981 | 26.67° C | 58% | 1008.4 hPa | 0 mm | - | 869 W/m² | - |
| 1777925952 | 26.67° C | 57% | 1008.4 hPa | 0 mm | - | 891 W/m² | - |
| 1777925920 | 26.67° C | 55% | 1008.5 hPa | 0 mm | - | 897 W/m² | - |
| 1777925891 | 26.67° C | 56% | 1008.4 hPa | 0 mm | - | 881 W/m² | - |
| 1777925702 | 26.67° C | 55% | 1008.7 hPa | 0 mm | - | 876 W/m² | - |
| 1777925644 | 26.67° C | 56% | 1008.8 hPa | 0 mm | - | 865 W/m² | - |
| 1777925582 | 26.67° C | 56% | 1008.7 hPa | 0 mm | - | 863 W/m² | - |
| 1777925522 | 26.67° C | 57% | 1008.7 hPa | 0 mm | - | 877 W/m² | - |
| 1777925467 | 26.67° C | 56% | 1008.7 hPa | 0 mm | - | 888 W/m² | - |
| 1777925402 | 26.67° C | 56% | 1008.8 hPa | 0 mm | - | 888 W/m² | - |
* Rain latest hour (hover to see other rain measurements)
** Current wind speed in m/s (hover to see current wind gust speed)